sat.trackr.live / text

‹ back to catalog

SMAP

NORAD 40376 · 2015-003A

PAYLOAD ACTIVE UNKNOWN

§ Identity

Operator
Country
US
Launch date
2015-01-31
Launch site
AFWTR
Launch vehicle
Mass (kg)
RCS (m²)
4.28

Purposes: earth_obs

External: N2YO · Heavens-Above · Gunter

§ Orbital elements

Epoch: 2026-09-13T01:55:16.495392Z

Period
98.40 min
Inclination
98.1315°
Eccentricity
0.0001445
Mean motion
14.63369504 rev/d
Perigee alt
681.3 km
Apogee alt
683.3 km
Semi-major
7,060.5 km
B*
5.9540e-5
RAAN
261.9441°
Arg perigee
91.6088°
Mean anomaly
268.5279°
Rev number
62,047

§ Raw data

SMAP1 40376U 15003A   26256.08005203  .00000261  00000+0  59540-4 0  99932 40376  98.1315 261.9441 0001445  91.6088 268.5279 14.63369504620471

JSON: /api/v1/satellites/40376 · /tle

For live sub-satellite position, see the globe view (requires WebGL).

§ Visibility from observer

Set your observer location to see the next 7 days of passes ≥ 10°. The values pass through the URL so the page stays shareable.

No JS? Fill the form by hand. The geolocation button needs JavaScript.

§ Radio — SatNOGS DB

ModeDescriptionDownlinkUplink
FM Mode X 8.180 GHz
DBPSK S-Band 9k6 DBPSK Telemetry Experimental 2.274 GHz
DBPSK S-Band DBPSK Telemetry 2.274 GHz

3 transmitters · refreshed weekly from db.satnogs.org